"Pseudo-MPEC" for P11dgs0
Created 2021 Feb 24 10:07:16 UT using Find_Orb
Click here for an explanation of pseudo-MPECs
Astrometry: P11dgs0 C2021 02 12_WOtia@/:CB
Astrometry8HPjdI'VEstj++ir]A8vxgqg(kQvhMh
F51 P11dgs0 C2021 02 127#2UM5\]Z/WJ:bn
redacted;gy5%vhlG/N8`%4mq7L;bUOr2SfO!
F51 P11dgs0 C2021 02 12S(k2
click$YX%h-=)2xq%Ib_P'l6)I]_R^8ZO%9b]+j64Vh_67Gu
F51 P11dgs0 C2021 02 12A(P4?YRBp7t/*T8/G!Ff`7tmjY][ZY#c/k(Bw$95xs,:\To(@Usv
F51 P11dgs0 C2021 02 16)A@$Uw]2`F#Bi!F\jx^c*Ry^'XW!.;v(W^T8pn^Nj'Ojc?h!\M.5
F51 P11dgs0 C2021 02 1610DAq,\m5:HMn`wcDK-L
hereTxiMfE/9SD%c;
for#*fcg4x'\%Ov
F51 P11dgs0 C2021 02 16#8t(F]xj05tXhr7Q3n5TWh0]$53Tl%Nu%O2#?BB
explanationTT
F51 P11dgs0 KC2021 02 19.13646308 36 51.74 +43 01 35.4 ~2J3q 21.30GVNEOCPV06 P11dgs0 KC2021 02 19.13966308 36 51.21 +43 01 25.1 ~2J3q 21.73GVNEOCPV06 P11dgs0 KC2021 02 19.14281208 36 50.72 +43 01 14.2 ~2J3q 22.16GVNEOCPV06 P11dgs0 KC2021 02 19.14597908 36 50.18 +43 01 04.0 ~2J3q 21.36GVNEOCPV06 Station data: (F51) Pan-STARRS 1, Haleakala (N20.707235 W156.255910) US/Hawaii. Observers N. Primak, A. Schultz, S. Watters, J. Thiel, T. Goggia. Measurer PS1 Science Consortium. 1.8-m Ritchey-Chrétien + CCD. (V06) Catalina Sky Survey-Kuiper (N32.416847 W110.732550) US/Arizona. Observers T. A. Pruyne, B. M. Africano, E. J. Christensen, G. A. Farneth, D. C. Fuls, A. R. Gibbs, A. D. Grauer, H. Gröller, J. A. Johnson, R. A. Kowalski, S. M. Larson, G. J. Leonard, D. Rankin, R. L. Seaman, F. C. Shelly. 1.55-m reflector + CCD. Orbital elements: P11dgs0 Perihelion 2020 Nov 10.753129 +/- 0.320967 TT = 18:04:30 (JD 2459164.253129) Epoch 2021 Feb 19.0 TT = JDT 2459264.5 Earth MOID: 0.3905 Ma: 0.0444 M 58.02782626 +/- 0.3050673 (J2000 ecliptic) AutoNEOCP n 0.57884925 +/- 0.00122752 Peri. 92.83004 +/- 0.3047337 a 1.42591092 +/- 0.00201582 Node 337.65261 +/- 0.0353713 e 0.1129014 +/- 0.000465955 Incl. 25.35189 +/- 0.0665721 P 1.70/621.91d H 22.2 G 0.15 U 8.2 q 1.26492348 +/- 0.00117162 Q 1.58689837 +/- 0.00287815 From 11 observations 2021 Feb. 12-19; mean residual 0".11
Residuals in arcseconds: 210212 F51 .01- .03+ 210216 F51 .15- .07- 210219 V06 .13- .24+ 210212 F51 .09+ .13+ 210216 F51 .07+ .00 210219 V06 .21+ .24- 210212 F51 .04- .13- 210216 F51 .08+ .07+ 210219 V06 .03+ .05+ 210212 F51 .04- .04- 210219 V06 .11- .05- Ephemerides (geocentric): Date (UTC) HH RA Dec delta r elong mag " sig PA ---- -- -- -- ------------- ----------- ------ ------ ----- --- ---- --- 2021 02 24 10 08 25 10.639 +38 06 01.59 .44815 1.3633 139.9 22.4 1.73 109 2021 02 24 11 08 25 06.110 +38 03 42.78 .44832 1.3634 139.9 22.4 1.75 109 2021 02 24 12 08 25 01.595 +38 01 24.01 .44849 1.3635 139.8 22.4 1.76 109 2021 02 24 13 08 24 57.096 +37 59 05.27 .44866 1.3635 139.8 22.4 1.78 109 2021 02 24 14 08 24 52.610 +37 56 46.57 .44882 1.3636 139.8 22.4 1.80 109 2021 02 24 15 08 24 48.139 +37 54 27.90 .44899 1.3637 139.8 22.4 1.82 109 2021 02 24 16 08 24 43.683 +37 52 09.27 .44916 1.3637 139.7 22.4 1.84 109 2021 02 24 17 08 24 39.241 +37 49 50.67 .44933 1.3638 139.7 22.4 1.86 109 2021 02 24 18 08 24 34.814 +37 47 32.11 .44950 1.3638 139.7 22.4 1.88 109 2021 02 24 19 08 24 30.401 +37 45 13.59 .44967 1.3639 139.7 22.4 1.90 109 2021 02 24 20 08 24 26.003 +37 42 55.11 .44984 1.3640 139.6 22.4 1.92 109 2021 02 24 21 08 24 21.619 +37 40 36.66 .45001 1.3640 139.6 22.4 1.94 109 2021 02 24 22 08 24 17.249 +37 38 18.25 .45018 1.3641 139.6 22.4 1.96 109 2021 02 24 23 08 24 12.894 +37 35 59.89 .45035 1.3642 139.6 22.4 1.98 109 2021 02 25 00 08 24 08.553 +37 33 41.56 .45053 1.3642 139.5 22.4 2.00 109 2021 02 25 01 08 24 04.226 +37 31 23.26 .45070 1.3643 139.5 22.4 2.02 109 2021 02 25 02 08 23 59.914 +37 29 05.01 .45087 1.3644 139.5 22.4 2.04 109 2021 02 25 03 08 23 55.616 +37 26 46.80 .45104 1.3644 139.4 22.4 2.06 109 2021 02 25 04 08 23 51.332 +37 24 28.63 .45122 1.3645 139.4 22.4 2.08 108 2021 02 25 05 08 23 47.062 +37 22 10.50 .45139 1.3646 139.4 22.4 2.10 108 2021 02 25 06 08 23 42.807 +37 19 52.41 .45157 1.3646 139.4 22.4 2.12 108 2021 02 25 07 08 23 38.565 +37 17 34.36 .45174 1.3647 139.3 22.4 2.14 108 2021 02 25 08 08 23 34.338 +37 15 16.36 .45192 1.3648 139.3 22.4 2.16 108 2021 02 25 09 08 23 30.125 +37 12 58.39 .45209 1.3648 139.3 22.4 2.18 108 2021 02 25 10 08 23 25.926 +37 10 40.47 .45227 1.3649 139.3 22.4 2.20 108 2021 02 25 11 08 23 21.742 +37 08 22.59 .45244 1.3650 139.2 22.4 2.22 108 2021 02 25 12 08 23 17.571 +37 06 04.75 .45262 1.3650 139.2 22.4 2.24 108 2021 02 25 13 08 23 13.414 +37 03 46.96 .45280 1.3651 139.2 22.4 2.26 108 2021 02 25 14 08 23 09.271 +37 01 29.21 .45297 1.3652 139.2 22.4 2.28 108 2021 02 25 15 08 23 05.143 +36 59 11.51 .45315 1.3652 139.1 22.4 2.30 108 2021 02 25 16 08 23 01.028 +36 56 53.85 .45333 1.3653 139.1 22.4 2.32 108 2021 02 25 17 08 22 56.927 +36 54 36.23 .45351 1.3654 139.1 22.4 2.34 108 2021 02 25 18 08 22 52.840 +36 52 18.66 .45369 1.3654 139.1 22.4 2.37 108 2021 02 25 19 08 22 48.767 +36 50 01.13 .45387 1.3655 139.0 22.4 2.39 108 2021 02 25 20 08 22 44.708 +36 47 43.65 .45405 1.3655 139.0 22.4 2.41 108 2021 02 25 21 08 22 40.663 +36 45 26.21 .45423 1.3656 139.0 22.4 2.43 108 2021 02 25 22 08 22 36.632 +36 43 08.82 .45441 1.3657 138.9 22.4 2.45 108 2021 02 25 23 08 22 32.614 +36 40 51.48 .45459 1.3657 138.9 22.4 2.47 108 2021 02 26 00 08 22 28.610 +36 38 34.19 .45477 1.3658 138.9 22.4 2.49 107 2021 02 26 01 08 22 24.620 +36 36 16.94 .45495 1.3659 138.9 22.4 2.52 107 2021 02 26 02 08 22 20.644 +36 33 59.74 .45513 1.3659 138.8 22.4 2.54 107 2021 02 26 03 08 22 16.681 +36 31 42.58 .45531 1.3660 138.8 22.4 2.56 107 2021 02 26 04 08 22 12.732 +36 29 25.48 .45550 1.3661 138.8 22.4 2.58 107 2021 02 26 05 08 22 08.797 +36 27 08.42 .45568 1.3661 138.8 22.4 2.60 107 2021 02 26 06 08 22 04.875 +36 24 51.41 .45586 1.3662 138.7 22.4 2.63 107 2021 02 26 07 08 22 00.967 +36 22 34.45 .45605 1.3663 138.7 22.4 2.65 107 2021 02 26 08 08 21 57.073 +36 20 17.54 .45623 1.3663 138.7 22.4 2.67 107 2021 02 26 09 08 21 53.192 +36 18 00.68 .45642 1.3664 138.6 22.4 2.69 107